timestamp,surface_pressure_avg,surface_temp_avg,battery_voltage,lat,long
2017-12-19 00:00:00+00:00,336.608,5.33,12.81,47.84626,-54.09684
2017-12-19 00:10:00+00:00,339.048,5.39,12.73,47.84626,-54.09684
2017-12-19 00:20:00+00:00,339.2813,5.4,12.81,47.84626,-54.09684
2017-12-19 00:30:00+00:00,336.5663,5.3,12.81,47.84626,-54.09684
2017-12-19 00:40:00+00:00,331.713,5.3,12.81,47.84626,-54.09684
2017-12-19 00:50:00+00:00,334.3346,5.28,12.81,47.84626,-54.09684
2017-12-19 01:00:00+00:00,330.2646,5.27,12.81,47.84626,-54.09684
2017-12-19 01:10:00+00:00,322.223,5.29,12.73,47.84626,-54.09684
2017-12-19 01:20:00+00:00,319.243,5.26,12.81,47.84626,-54.09684
2017-12-19 01:30:00+00:00,319.398,5.2,12.81,47.84626,-54.09684
2017-12-19 01:40:00+00:00,314.6464,5.18,12.81,47.84626,-54.09684
2017-12-19 01:50:00+00:00,311.1796,5.1,12.81,47.84626,-54.09684
2017-12-19 02:00:00+00:00,312.6363,5.19,12.73,47.84626,-54.09684
2017-12-19 02:10:00+00:00,311.9413,5.27,12.73,47.84626,-54.09684
2017-12-19 02:20:00+00:00,303.2297,5.3,12.81,47.84626,-54.09684
2017-12-19 02:30:00+00:00,298.8497,5.3,12.81,47.84626,-54.09684
2017-12-19 02:40:00+00:00,296.1481,5.2,12.81,47.84626,-54.09684
2017-12-19 02:50:00+00:00,287.223,5.0,12.81,47.84626,-54.09684
2017-12-19 03:00:00+00:00,276.8448,4.9,12.73,47.84626,-54.09684
2017-12-19 03:10:00+00:00,274.238,4.88,12.73,47.84626,-54.09684
2017-12-19 03:20:00+00:00,269.9297,4.9,12.81,47.84626,-54.09684
2017-12-19 03:30:00+00:00,259.323,4.9,12.81,47.84626,-54.09684
2017-12-19 03:40:00+00:00,249.3231,4.9,12.81,47.84626,-54.09684
2017-12-19 03:50:00+00:00,246.9314,4.91,12.81,47.84626,-54.09684
2017-12-19 04:00:00+00:00,239.9581,5.03,12.73,47.84626,-54.09684
2017-12-19 04:10:00+00:00,228.8131,5.3,12.73,47.84626,-54.09684
2017-12-19 04:20:00+00:00,221.3281,5.38,12.81,47.84626,-54.09684
2017-12-19 04:30:00+00:00,216.6431,5.3,12.81,47.84626,-54.09684
2017-12-19 04:40:00+00:00,211.1798,5.2,12.81,47.84626,-54.09684
2017-12-19 04:50:00+00:00,204.5981,5.17,12.81,47.84626,-54.09684
2017-12-19 05:00:00+00:00,200.7548,5.09,12.73,47.84626,-54.09684
2017-12-19 05:10:00+00:00,200.6831,5.0,12.73,47.84626,-54.09684
2017-12-19 05:20:00+00:00,197.7314,4.9,12.81,47.84626,-54.09684
2017-12-19 05:30:00+00:00,196.1798,4.5,12.81,47.84626,-54.09684
2017-12-19 05:40:00+00:00,196.2281,4.3,12.81,47.84626,-54.09684
2017-12-19 05:50:00+00:00,195.7014,4.2,12.81,47.84626,-54.09684
2017-12-19 06:00:00+00:00,196.2531,4.2,12.73,47.84626,-54.09684
2017-12-19 06:10:00+00:00,197.9981,4.31,12.73,47.84626,-54.09684
2017-12-19 06:20:00+00:00,199.2431,4.46,12.73,47.84626,-54.09684
2017-12-19 06:30:00+00:00,201.8664,4.5,12.73,47.84626,-54.09684
2017-12-19 06:40:00+00:00,206.0031,4.5,12.81,47.84626,-54.09684
2017-12-19 06:50:00+00:00,208.8597,4.5,12.81,47.84626,-54.09684
2017-12-19 07:00:00+00:00,213.1898,4.5,12.73,47.84626,-54.09684
2017-12-19 07:10:00+00:00,218.3665,4.5,12.65,47.84626,-54.09684
2017-12-19 07:20:00+00:00,219.6181,4.54,12.73,47.84626,-54.09684
2017-12-19 07:30:00+00:00,222.1364,4.58,12.73,47.84626,-54.09684
2017-12-19 07:40:00+00:00,226.6231,4.6,12.81,47.84626,-54.09684
2017-12-19 07:50:00+00:00,230.0048,4.6,12.81,47.84626,-54.09684
2017-12-19 08:00:00+00:00,231.6097,4.59,12.73,47.84626,-54.09684
2017-12-19 08:10:00+00:00,235.463,4.3,12.65,47.84626,-54.09684
2017-12-19 08:20:00+00:00,242.7447,4.2,12.73,47.84626,-54.09684
2017-12-19 08:30:00+00:00,247.5731,4.25,12.73,47.84626,-54.09684
2017-12-19 08:40:00+00:00,251.0881,4.38,12.81,47.84626,-54.09684
2017-12-19 08:50:00+00:00,258.6681,4.76,12.81,47.84626,-54.09684
2017-12-19 09:00:00+00:00,266.4881,4.86,12.73,47.84626,-54.09684
2017-12-19 09:10:00+00:00,269.7064,4.8,12.65,47.84626,-54.09684
2017-12-19 09:20:00+00:00,271.9347,4.8,12.73,47.84626,-54.09684
2017-12-19 09:30:00+00:00,279.4697,4.7,12.73,47.84626,-54.09684
2017-12-19 09:40:00+00:00,286.1597,4.7,12.73,47.84626,-54.09684
2017-12-19 09:50:00+00:00,291.1263,4.7,12.81,47.84626,-54.09684
2017-12-19 10:00:00+00:00,298.9497,4.6,12.73,47.84626,-54.09684
2017-12-19 10:10:00+00:00,308.473,4.37,12.65,47.84626,-54.09684
2017-12-19 10:20:00+00:00,316.2363,4.05,12.73,47.84626,-54.09684
2017-12-19 10:30:00+00:00,321.5946,4.01,12.73,47.84626,-54.09684
2017-12-19 10:40:00+00:00,328.6146,4.82,12.73,47.84626,-54.09684
2017-12-19 10:50:00+00:00,334.0997,5.0,12.73,47.84626,-54.09684
2017-12-19 11:00:00+00:00,339.4496,4.36,12.73,47.84626,-54.09684
2017-12-19 11:10:00+00:00,345.2663,4.27,12.65,47.84626,-54.09684
2017-12-19 11:20:00+00:00,348.658,4.98,12.73,47.84626,-54.09684
2017-12-19 11:30:00+00:00,349.5347,5.1,12.73,47.84626,-54.09684
2017-12-19 11:40:00+00:00,352.5497,5.1,12.73,47.84626,-54.09684
2017-12-19 11:50:00+00:00,355.8063,5.14,12.73,47.84626,-54.09684
2017-12-19 12:00:00+00:00,357.1196,5.17,12.73,47.84626,-54.09684
2017-12-19 12:10:00+00:00,357.3679,5.18,12.65,47.84626,-54.09684
2017-12-19 12:20:00+00:00,360.3412,5.1,12.73,47.84626,-54.09684
2017-12-19 12:30:00+00:00,359.5229,5.0,12.73,47.84626,-54.09684
2017-12-19 12:40:00+00:00,357.7529,4.9,12.81,47.84626,-54.09684
2017-12-19 12:50:00+00:00,356.0463,4.9,12.81,47.84626,-54.09684
2017-12-19 13:00:00+00:00,356.4996,4.9,12.73,47.84626,-54.09684
2017-12-19 13:10:00+00:00,354.5846,4.95,12.73,47.84626,-54.09684
2017-12-19 13:20:00+00:00,352.303,4.98,12.81,47.84626,-54.09684
2017-12-19 13:30:00+00:00,350.9263,4.99,12.81,47.84626,-54.09684
2017-12-19 13:40:00+00:00,347.7896,5.0,12.81,47.84626,-54.09684
2017-12-19 13:50:00+00:00,341.8496,4.99,12.81,47.84626,-54.09684
2017-12-19 14:00:00+00:00,336.7096,5.0,12.73,47.84626,-54.09684
2017-12-19 14:10:00+00:00,333.9164,5.0,12.73,47.84626,-54.09684
2017-12-19 14:20:00+00:00,327.1996,4.9,12.81,47.84626,-54.09684
2017-12-19 14:30:00+00:00,319.3563,4.9,12.89,47.84626,-54.09684
2017-12-19 14:40:00+00:00,313.9647,4.8,12.89,47.84626,-54.09684
2017-12-19 14:50:00+00:00,311.393,4.8,12.89,47.84626,-54.09684
2017-12-19 15:00:00+00:00,300.9397,4.7,12.81,47.84626,-54.09684
2017-12-19 15:10:00+00:00,292.1497,4.69,12.73,47.84626,-54.09684
2017-12-19 15:20:00+00:00,288.808,4.67,12.81,47.84626,-54.09684
2017-12-19 15:30:00+00:00,284.3831,4.6,12.81,47.84626,-54.09684
2017-12-19 15:40:00+00:00,271.2831,4.5,12.81,47.84626,-54.09684
2017-12-19 15:50:00+00:00,264.2948,4.5,12.89,47.84626,-54.09684
2017-12-19 16:00:00+00:00,261.473,4.5,12.81,47.84626,-54.09684
2017-12-19 16:10:00+00:00,254.0831,4.5,12.81,47.84626,-54.09684
2017-12-19 16:20:00+00:00,243.5181,4.48,12.89,47.84626,-54.09684
2017-12-19 16:30:00+00:00,237.6414,4.4,12.89,47.84626,-54.09684
2017-12-19 16:40:00+00:00,231.8381,4.33,12.97,47.84626,-54.09684
2017-12-19 16:50:00+00:00,223.6264,4.3,12.97,47.84626,-54.09684
2017-12-19 17:00:00+00:00,218.5114,4.3,12.89,47.84626,-54.09684
2017-12-19 17:10:00+00:00,214.7481,4.36,12.81,47.84626,-54.09684
2017-12-19 17:20:00+00:00,208.4547,4.4,12.89,47.84626,-54.09684
2017-12-19 17:30:00+00:00,202.9615,4.4,12.81,47.84626,-54.09684
2017-12-19 17:40:00+00:00,200.2614,4.44,12.89,47.84626,-54.09684
2017-12-19 17:50:00+00:00,196.3914,4.49,12.89,47.84626,-54.09684
2017-12-19 18:00:00+00:00,193.0398,4.5,12.81,47.84626,-54.09684
2017-12-19 18:10:00+00:00,195.0715,4.5,12.73,47.84626,-54.09684
2017-12-19 18:20:00+00:00,195.8998,4.5,12.81,47.84626,-54.09684
2017-12-19 18:30:00+00:00,193.4465,4.46,12.81,47.84626,-54.09684
2017-12-19 18:40:00+00:00,196.2281,4.4,12.81,47.84626,-54.09684
2017-12-19 18:50:00+00:00,200.1464,4.4,12.81,47.84626,-54.09684
2017-12-19 19:00:00+00:00,198.1431,4.4,12.73,47.84626,-54.09684
2017-12-19 19:10:00+00:00,200.9465,4.2,12.65,47.84626,-54.09684
2017-12-19 19:20:00+00:00,209.6331,4.3,12.73,47.84626,-54.09684
2017-12-19 19:30:00+00:00,213.4198,4.4,12.73,47.84626,-54.09684
2017-12-19 19:40:00+00:00,215.3181,4.4,12.73,47.84626,-54.09684
2017-12-19 19:50:00+00:00,223.0565,4.4,12.81,47.84626,-54.09684
2017-12-19 20:00:00+00:00,231.1581,4.5,12.73,47.84626,-54.09684
2017-12-19 20:10:00+00:00,232.3898,4.55,12.65,47.84626,-54.09684
2017-12-19 20:20:00+00:00,234.6964,4.6,12.73,47.84626,-54.09684
2017-12-19 20:30:00+00:00,239.8831,4.6,12.73,47.84626,-54.09684
2017-12-19 20:40:00+00:00,242.5864,4.6,12.73,47.84626,-54.09684
2017-12-19 20:50:00+00:00,243.4381,4.61,12.73,47.84626,-54.09684
2017-12-19 21:00:00+00:00,249.6548,4.68,12.73,47.84626,-54.09684
2017-12-19 21:10:00+00:00,257.9214,4.7,12.65,47.84626,-54.09684
2017-12-19 21:20:00+00:00,263.5831,4.7,12.73,47.84626,-54.09684
2017-12-19 21:30:00+00:00,268.5864,4.7,12.73,47.84626,-54.09684
2017-12-19 21:40:00+00:00,276.6614,4.7,12.73,47.84626,-54.09684
2017-12-19 21:50:00+00:00,285.0096,4.7,12.73,47.84626,-54.09684
2017-12-19 22:00:00+00:00,291.8963,4.7,12.65,47.84626,-54.09684
2017-12-19 22:10:00+00:00,300.918,4.7,12.65,47.84626,-54.09684
2017-12-19 22:20:00+00:00,306.238,4.7,12.73,47.84626,-54.09684
2017-12-19 22:30:00+00:00,309.703,4.7,12.73,47.84626,-54.09684
2017-12-19 22:40:00+00:00,317.443,4.7,12.73,47.84626,-54.09684
2017-12-19 22:50:00+00:00,324.938,4.78,12.73,47.84626,-54.09684
2017-12-19 23:00:00+00:00,327.5746,4.79,12.65,47.84626,-54.09684
2017-12-19 23:10:00+00:00,334.383,4.79,12.65,47.84626,-54.09684
2017-12-19 23:20:00+00:00,345.3162,4.8,12.73,47.84626,-54.09684
2017-12-19 23:30:00+00:00,348.1696,4.8,12.73,47.84626,-54.09684
2017-12-19 23:40:00+00:00,343.1863,4.8,12.73,47.84626,-54.09684
2017-12-19 23:50:00+00:00,348.1214,4.8,12.73,47.84626,-54.09684
